Location: Newark
(40.9833°N, 0.0333°W)
Time: 01:53:55
(UTC+00:00)

Altair - Pass Details

Date: 31 October 2020
Orbit: 1502 x 1682 km, 47.2° (Epoch: 02 December)

Event Time Altitude Azimuth Distance (km) Brightness Sun altitude
Rises 12:56:48 0° 288° (WNW) 4,824 10.2 32.1°
Reaches altitude 10° 13:01:48 10° 267° (W) 3,869 10.0 31.8°
Maximum altitude 13:06:34 15° 237° (WSW) 3,528 10.5 31.4°
Drops below altitude 10° 13:11:24 10° 207° (SSW) 3,913 11.2 31.0°
Sets 13:16:35 0° 186° (S) 4,913 11.1 30.6°
